Location: Casteau
(50.5142°N, 4.0161°E)
Time: 20:31:40
(UTC+00:00)

Tiros 1 - Pass Details

Date: 05 August 2021
Orbit: 630 x 663 km, 48.4° (Epoch: 28 September)

Event Time Altitude Azimuth Distance (km) Brightness Sun altitude
Rises 18:03:51 0° 254° (WSW) 2,986 11.7 10.7°
Reaches altitude 10° 18:06:13 10° 251° (WSW) 2,072 10.9 10.3°
Maximum altitude 18:10:57 64° 171° (S) 727 7.5 9.6°
Drops below altitude 10° 18:15:39 10° 90° (E) 2,056 9.2 8.9°
Sets 18:17:59 0° 87° (E) 2,962 9.9 8.5°
